Home   Weather   Zhengzhou   Past weeks

Flag for China Past Weather in Zhengzhou, Henan, China — Yesterday and Last 2 Weeks

61 °F


Feels Like: 61 °F
Forecast: 54 / 64 °F
Wind: 6 mph from East

Location: Zhengzhou Airport

Current Time: Oct 25, 2016 at 1:07:15 PM

Latest Report: Oct 25, 2016 at 12:00 PM

Visibility: 4 mi

Pressure: 30.01 "Hg

Humidity: 77%

Dew Point: 54 °F

Location of ZhengzhouLocation

Past Weather in Zhengzhou — Graph


Zhengzhou Temperature Yesterday

Maximum temperature yesterday: 52 °F (at 11:00 AM)
Minimum temperature yesterday: 48 °F (at 12:00 AM)
Average temperature yesterday: 49 °F

High & Low Weather Summary for the Past Weeks

High77 °F (Oct 17, 1:00 PM)100% (Oct 15, 6:00 AM)30.30 "Hg (Oct 15, 6:00 AM)
Low45 °F (Oct 25, 2:00 AM)40% (Oct 11, 4:00 PM)29.95 "Hg (Oct 19, 2:00 PM)
Average60 °F81%30.11 "Hg
* Reported Oct 10 12:00 PM — Oct 25 12:00 PM, Zhengzhou, Weather by CustomWeather, © 2016

Note: Actual official high and low records may vary slightly from our data, if they occured in-between our weather recording intervals... More about our weather records


Zhengzhou Weather History for the Previous 24 Hours

Scroll right to see more
Time TempWeatherWind HumidityBarometerVisibility
12:00 PM
Tue, Oct 25
61 °FClear.6 mph77%30.01 "Hg4 mi
11:00 AM59 °FClear.3 mph88%30.04 "Hg4 mi
10:00 AM55 °FFog.1 mph100%30.04 "Hg1 mi
9:00 AM48 °FFog.1 mph100%30.07 "Hg0 mi
8:00 AM46 °FFog.6 mph100%30.04 "Hg0 mi
7:00 AM45 °FFog.No wind100%30.04 "Hg0 mi
6:00 AM46 °FFog.1 mph100%30.01 "Hg0 mi
5:00 AM46 °FFog.3 mph100%30.01 "Hg1 mi
4:00 AM45 °FFog.1 mph100%30.01 "Hg1 mi
3:00 AM46 °FFog.1 mph93%30.01 "Hg1 mi
2:00 AM45 °FFog.1 mph100%30.04 "Hg1 mi
1:00 AM46 °FFog.1 mph100%30.04 "Hg2 mi
12:00 AM46 °FFog.3 mph100%30.04 "Hg2 mi
11:00 PM
Mon, Oct 24
48 °FFog.1 mph100%30.04 "Hg2 mi
10:00 PM48 °FFog.6 mph100%30.04 "Hg2 mi
9:00 PM48 °FFog.3 mph94%30.04 "Hg2 mi
8:00 PM48 °FLight rain. Fog.6 mph94%30.04 "Hg2 mi
7:00 PM48 °FLight rain. Fog.3 mph94%29.98 "Hg1 mi
6:00 PM48 °FLight rain. Fog.1 mph94%29.98 "Hg1 mi
5:00 PM48 °FLight rain. Fog.8 mph94%29.98 "Hg1 mi
4:00 PM48 °FLight rain. Fog.10 mph94%30.01 "Hg1 mi
3:00 PM48 °FLight rain. Fog.6 mph100%29.98 "Hg1 mi
2:00 PM50 °FLight rain. Fog.6 mph88%29.98 "Hg2 mi
1:00 PM52 °FLight rain. Fog.3 mph88%30.01 "Hg2 mi
Weather by CustomWeather, © 2016

See weather overviewHow to use our weather pages